This is the latest recevied weather packets stored in our database for station/object KQ7A. If no packets are shown the sender has not sent any weather packets the latest 10 day(s).
| Time | Temp. | Humidity | Pressure | Rain* | Wind** | Luminosity | Snow |
|---|---|---|---|---|---|---|---|
| 1777757809 | 22.78° C | 29% | 1015.4 hPa | 0 mm | - | 589 W/m² | - |
| 1777757506 | 22.22° C | 30% | 1015.3 hPa | 0 mm | - | 659 W/m² | - |
| 1777757205 | 22.22° C | 29% | 1015.4 hPa | 0 mm | - | 674 W/m² | - |
| 1777756903 | 21.67° C | 27% | 1015.6 hPa | 0 mm | - | 465 W/m² | - |
| 1777756598 | 22.22° C | 28% | 1015.5 hPa | 0 mm | - | 592 W/m² | - |
| 1777756295 | 21.67° C | 29% | 1015.8 hPa | 0 mm | - | 450 W/m² | - |
| 1777755993 | 21.67° C | 29% | 1015.6 hPa | 0 mm | - | 338 W/m² | - |
| 1777755690 | 21.67° C | 27% | 1016 hPa | 0 mm | - | 340 W/m² | - |
| 1777755387 | 21.67° C | 27% | 1016 hPa | 0 mm | - | 465 W/m² | - |
| 1777755083 | 21.67° C | 29% | 1015.9 hPa | 0 mm | - | 468 W/m² | - |
| 1777754780 | 21.67° C | 29% | 1015.9 hPa | 0 mm | - | 423 W/m² | - |
| 1777754478 | 21.67° C | 28% | 1016 hPa | 0 mm | - | 452 W/m² | - |
| 1777754175 | 21.67° C | 30% | 1015.9 hPa | 0 mm | - | 511 W/m² | - |
| 1777753873 | 21.11° C | 32% | 1016.1 hPa | 0 mm | - | 426 W/m² | - |
| 1777753567 | 20.56° C | 37% | 1015.6 hPa | 0 mm | - | 318 W/m² | - |
| 1777753266 | 20.56° C | 36% | 1015.9 hPa | 0 mm | - | 322 W/m² | - |
| 1777752956 | 20.56° C | 37% | 1015.9 hPa | 0 mm | - | 372 W/m² | - |
| 1777752653 | 20.56° C | 39% | 1015.9 hPa | 0 mm | - | 394 W/m² | - |
| 1777752348 | 20.56° C | 38% | 1016.1 hPa | 0 mm | - | 373 W/m² | - |
| 1777752047 | 20.56° C | 36% | 1016 hPa | 0 mm | - | 465 W/m² | - |
| 1777751744 | 20° C | 38% | 1016.2 hPa | 0 mm | - | 360 W/m² | - |
| 1777751440 | 20.56° C | 35% | 1016.1 hPa | 0 mm | - | 338 W/m² | - |
| 1777751137 | 20° C | 38% | 1016.3 hPa | 0 mm | - | 368 W/m² | - |
| 1777750833 | 20° C | 35% | 1016.3 hPa | 0 mm | - | 597 W/m² | - |
| 1777750531 | 20.56° C | 40% | 1016.6 hPa | 0 mm | - | 422 W/m² | - |
* Rain latest hour (hover to see other rain measurements)
** Current wind speed in m/s (hover to see current wind gust speed)